CW0146 Weather Reports


Display with metric or nautical units.
time (UTC)temp
F
wind
direction
speed
MPH
gust
MPH
rain 1hr
in
rain 24hr
in
rain mn
in
humidity
%
barometer
mb
20260831053454 84 195 2.0 6.0 0.00 0.00 0.00 66 1016.0
20260831052954 84 179 2.0 4.0 0.00 0.00 0.00 66 1016.0
20260831052456 84 117 1.0 2.0 0.00 0.00 0.00 65 1016.0
20260831051954 85 190 1.0 2.0 0.00 0.00 0.00 65 1016.0
20260831051454 85 143 2.0 4.0 0.00 0.00 0.00 64 1016.0
20260831050955 85 132 1.0 2.0 0.00 0.00 0.00 64 1016.0
20260831050454 85 171 2.0 5.0 0.00 0.00 0.00 63 1016.0
20260831045954 85 195 1.0 2.0 0.00 0.00 0.00 63 1016.0
20260831045455 85 182 1.0 2.0 0.00 0.00 0.00 62 1015.0
20260831044954 86 180 2.0 6.0 0.00 0.00 0.00 62 1015.0
20260831044454 86 122 1.0 4.0 0.00 0.00 0.00 61 1015.0
20260831043954 86 73 0.0 1.0 0.00 0.00 0.00 61 1015.0
20260831043455 86 193 2.0 5.0 0.00 0.00 0.00 61 1015.0
20260831042955 86 149 3.0 6.0 0.00 0.00 0.00 61 1015.0
20260831042454 86 137 1.0 3.0 0.00 0.00 0.00 61 1015.0
20260831041955 86 170 2.0 4.0 0.00 0.00 0.00 60 1015.0
20260831041455 87 166 3.0 6.0 0.00 0.00 0.00 60 1015.0
20260831040956 87 179 2.0 5.0 0.00 0.00 0.00 60 1015.0
20260831040454 87 152 1.0 2.0 0.00 0.00 0.00 60 1015.0
20260831035954 87 139 1.0 2.0 0.00 0.00 0.00 59 1015.0
20260831035454 87 73 2.0 4.0 0.00 0.00 0.00 59 1015.0
20260831034954 87 105 2.0 3.0 0.00 0.00 0.00 59 1015.0
20260831034454 87 106 2.0 3.0 0.00 0.00 0.00 59 1015.0
20260831033954 87 117 1.0 3.0 0.00 0.00 0.00 59 1015.0
20260831033454 87 99 2.0 4.0 0.00 0.00 0.00 58 1015.0
20260831032954 87 142 1.0 4.0 0.00 0.00 0.00 58 1015.0
20260831032454 88 165 1.0 3.0 0.00 0.00 0.00 58 1015.0
20260831031954 88 156 1.0 3.0 0.00 0.00 0.00 58 1015.0
20260831031455 88 152 1.0 4.0 0.00 0.00 0.00 58 1015.0
20260831030955 88 170 2.0 5.0 0.00 0.00 0.00 58 1015.0
20260831030454 88 154 2.0 4.0 0.00 0.00 0.00 58 1015.0
20260831025954 88 142 1.0 3.0 0.00 0.00 0.00 58 1015.0
20260831025454 88 166 1.0 2.0 0.00 0.00 0.00 58 1015.0
20260831024954 88 147 1.0 3.0 0.00 0.00 0.00 57 1015.0
20260831024454 89 112 1.0 3.0 0.00 0.00 0.00 57 1014.0
20260831023955 89 85 2.0 3.0 0.00 0.00 0.00 56 1014.0
20260831023454 89 137 2.0 5.0 0.00 0.00 0.00 56 1014.0
20260831022954 89 147 2.0 3.0 0.00 0.00 0.00 56 1014.0
20260831022455 89 159 1.0 3.0 0.00 0.00 0.00 56 1014.0
20260831021955 89 116 3.0 5.0 0.00 0.00 0.00 55 1014.0
20260831021454 90 116 2.0 3.0 0.00 0.00 0.00 54 1014.0
20260831020955 90 126 2.0 4.0 0.00 0.00 0.00 54 1014.0
20260831020454 90 111 3.0 6.0 0.00 0.00 0.00 52 1014.0
20260831015954 90 163 1.0 2.0 0.00 0.00 0.00 51 1014.0
20260831015454 90 97 3.0 6.0 0.00 0.00 0.00 47 1014.0
20260831014955 91 143 1.0 2.0 0.00 0.00 0.00 45 1014.0
20260831014454 91 123 0.0 1.0 0.00 0.00 0.00 44 1013.0
20260831013954 91 104 1.0 2.0 0.00 0.00 0.00 43 1013.0
20260831013454 91 85 1.0 2.0 0.00 0.00 0.00 43 1013.0
20260831012954 92 74 0.0 1.0 0.00 0.00 0.00 43 1013.0
20260831012454 92 92 0.0 2.0 0.00 0.00 0.00 42 1013.0
20260831011955 92 110 1.0 2.0 0.00 0.00 0.00 42 1013.0
20260831011455 92 103 1.0 2.0 0.00 0.00 0.00 42 1013.0
20260831010954 93 116 0.0 1.0 0.00 0.00 0.00 41 1013.0
20260831010454 93 157 1.0 2.0 0.00 0.00 0.00 42 1013.0
20260831005954 93 139 2.0 4.0 0.00 0.00 0.00 41 1013.0
20260831005455 93 121 1.0 2.0 0.00 0.00 0.00 41 1013.0
20260831004955 94 150 1.0 2.0 0.00 0.00 0.00 41 1013.0
20260831004455 94 102 1.0 2.0 0.00 0.00 0.00 41 1013.0
20260831003954 94 102 1.0 3.0 0.00 0.00 0.00 41 1013.0
20260831003454 95 115 1.0 3.0 0.00 0.00 0.00 41 1013.0
20260831002954 95 100 1.0 2.0 0.00 0.00 0.00 40 1013.0
20260831002454 96 166 1.0 2.0 0.00 0.00 0.00 40 1013.0
20260831001955 96 133 2.0 2.0 0.00 0.00 0.00 39 1013.0
20260831001454 97 115 2.0 3.0 0.00 0.00 0.00 39 1013.0
20260831000954 97 125 1.0 2.0 0.00 0.00 0.00 38 1013.0
20260831000454 97 157 1.0 2.0 0.00 0.00 0.00 37 1013.0
20260830235955 97 128 2.0 4.0 0.00 0.00 0.00 37 1013.0
20260830235454 98 120 1.0 2.0 0.00 0.00 0.00 37 1013.0
20260830234954 98 118 1.0 3.0 0.00 0.00 0.00 37 1013.0
20260830234454 98 137 2.0 4.0 0.00 0.00 0.00 37 1013.0
20260830233954 98 93 2.0 3.0 0.00 0.00 0.00 37 1013.0
20260830233454 98 124 1.0 2.0 0.00 0.00 0.00 37 1013.0
20260830232954 98 144 2.0 5.0 0.00 0.00 0.00 37 1013.0
20260830232454 98 83 2.0 4.0 0.00 0.00 0.00 36 1013.0
20260830231955 99 140 2.0 4.0 0.00 0.00 0.00 36 1013.0
20260830231454 99 190 2.0 3.0 0.00 0.00 0.00 38 1013.0
20260830230955 99 173 2.0 4.0 0.00 0.00 0.00 37 1013.0
20260830230454 99 172 2.0 4.0 0.00 0.00 0.00 37 1013.0
20260830225956 99 124 2.0 3.0 0.00 0.00 0.00 37 1013.0
20260830225454 99 135 2.0 5.0 0.00 0.00 0.00 38 1013.0
20260830224954 99 183 2.0 4.0 0.00 0.00 0.00 38 1013.0
20260830224454 99 150 2.0 3.0 0.00 0.00 0.00 37 1013.0
20260830223954 98 183 3.0 4.0 0.00 0.00 0.00 37 1013.0
20260830223455 97 134 2.0 4.0 0.00 0.00 0.00 38 1013.0
20260830222954 97 143 2.0 2.0 0.00 0.00 0.00 40 1013.0
20260830222454 97 139 2.0 2.0 0.00 0.00 0.00 40 1013.0
20260830221954 97 157 1.0 2.0 0.00 0.00 0.00 41 1013.0
20260830221454 98 113 1.0 2.0 0.00 0.00 0.00 39 1013.0
20260830220954 98 106 1.0 2.0 0.00 0.00 0.00 40 1013.0
20260830220454 98 129 2.0 4.0 0.00 0.00 0.00 39 1013.0
20260830215954 98 86 2.0 4.0 0.00 0.00 0.00 39 1013.0
20260830215454 98 102 2.0 4.0 0.00 0.00 0.00 40 1013.0
20260830214955 98 172 2.0 4.0 0.00 0.00 0.00 39 1013.0
20260830214454 98 98 2.0 3.0 0.00 0.00 0.00 39 1013.0
20260830213954 99 124 2.0 3.0 0.00 0.00 0.00 39 1013.0
20260830213454 100 130 1.0 3.0 0.00 0.00 0.00 39 1013.0
20260830212954 100 143 2.0 5.0 0.00 0.00 0.00 38 1014.0
20260830212455 100 146 2.0 3.0 0.00 0.00 0.00 38 1014.0
20260830211955 99 174 3.0 4.0 0.00 0.00 0.00 37 1014.0
20260830211455 98 163 2.0 4.0 0.00 0.00 0.00 39 1014.0
20260830210954 98 88 2.0 4.0 0.00 0.00 0.00 40 1014.0
20260830210454 98 97 2.0 4.0 0.00 0.00 0.00 41 1014.0
20260830205955 99 110 2.0 4.0 0.00 0.00 0.00 40 1014.0
20260830205454 98 147 2.0 4.0 0.00 0.00 0.00 40 1014.0
20260830204954 98 166 4.0 6.0 0.00 0.00 0.00 40 1014.0
20260830204454 97 146 2.0 4.0 0.00 0.00 0.00 42 1014.0
20260830203956 97 160 3.0 6.0 0.00 0.00 0.00 41 1014.0
20260830203454 97 163 3.0 5.0 0.00 0.00 0.00 41 1014.0
20260830202954 97 152 2.0 4.0 0.00 0.00 0.00 40 1014.0
20260830202454 96 113 2.0 4.0 0.00 0.00 0.00 42 1014.0
20260830201955 96 121 1.0 3.0 0.00 0.00 0.00 44 1015.0
20260830201455 97 126 1.0 2.0 0.00 0.00 0.00 44 1015.0
20260830200954 97 173 3.0 5.0 0.00 0.00 0.00 43 1015.0
20260830200455 97 145 2.0 4.0 0.00 0.00 0.00 44 1015.0
20260830195954 97 184 4.0 5.0 0.00 0.00 0.00 43 1015.0
20260830195454 96 115 2.0 4.0 0.00 0.00 0.00 44 1015.0
20260830194954 96 175 3.0 6.0 0.00 0.00 0.00 44 1015.0
20260830194454 97 179 2.0 3.0 0.00 0.00 0.00 44 1015.0
20260830193954 96 136 2.0 3.0 0.00 0.00 0.00 45 1015.0
20260830193454 96 91 2.0 2.0 0.00 0.00 0.00 45 1015.0
20260830192954 96 187 4.0 8.0 0.00 0.00 0.00 45 1015.0
20260830192455 96 76 2.0 3.0 0.00 0.00 0.00 46 1015.0
20260830191954 96 107 2.0 4.0 0.00 0.00 0.00 45 1015.0
20260830191454 96 170 5.0 9.0 0.00 0.00 0.00 45 1016.0
20260830190954 95 159 2.0 4.0 0.00 0.00 0.00 45 1016.0
20260830190454 95 79 2.0 3.0 0.00 0.00 0.00 47 1016.0
20260830185954 94 136 3.0 6.0 0.00 0.00 0.00 47 1016.0
20260830185457 94 126 2.0 4.0 0.00 0.00 0.00 47 1016.0
20260830184954 94 184 3.0 5.0 0.00 0.00 0.00 47 1016.0
20260830184454 94 173 3.0 5.0 0.00 0.00 0.00 48 1016.0
20260830183955 94 172 4.0 6.0 0.00 0.00 0.00 47 1016.0
20260830183454 93 171 4.0 7.0 0.00 0.00 0.00 47 1016.0
20260830182954 93 93 1.0 2.0 0.00 0.00 0.00 49 1016.0
20260830182454 93 169 3.0 5.0 0.00 0.00 0.00 49 1016.0
20260830181954 93 187 5.0 7.0 0.00 0.00 0.00 48 1016.0
20260830181454 93 183 5.0 8.0 0.00 0.00 0.00 50 1016.0
20260830180955 93 178 3.0 4.0 0.00 0.00 0.00 50 1017.0
20260830180455 93 117 3.0 4.0 0.00 0.00 0.00 50 1017.0
20260830175955 94 128 1.0 2.0 0.00 0.00 0.00 49 1017.0
20260830175454 94 174 3.0 4.0 0.00 0.00 0.00 51 1017.0
20260830174954 94 206 2.0 3.0 0.00 0.00 0.00 53 1017.0
20260830174454 93 165 1.0 3.0 0.00 0.00 0.00 54 1017.0
20260830173954 93 103 2.0 4.0 0.00 0.00 0.00 51 1017.0
20260830173454 93 182 4.0 6.0 0.00 0.00 0.00 51 1017.0
20260830172955 92 161 2.0 3.0 0.00 0.00 0.00 53 1017.0
20260830172454 92 160 2.0 5.0 0.00 0.00 0.00 54 1017.0
20260830171954 92 180 5.0 7.0 0.00 0.00 0.00 54 1017.0
20260830171454 92 132 2.0 3.0 0.00 0.00 0.00 53 1017.0
20260830170955 91 187 3.0 6.0 0.00 0.00 0.00 54 1018.0
20260830170455 91 166 3.0 6.0 0.00 0.00 0.00 55 1018.0
20260830165957 91 179 2.0 4.0 0.00 0.00 0.00 55 1018.0
20260830165454 90 184 3.0 6.0 0.00 0.00 0.00 55 1018.0
20260830164955 90 185 3.0 7.0 0.00 0.00 0.00 58 1018.0
20260830164454 89 167 3.0 5.0 0.00 0.00 0.00 59 1018.0
20260830163954 89 176 2.0 4.0 0.00 0.00 0.00 58 1018.0
20260830163455 89 179 5.0 7.0 0.00 0.00 0.00 59 1018.0
20260830162955 89 148 4.0 6.0 0.00 0.00 0.00 60 1018.0
20260830162455 89 182 3.0 4.0 0.00 0.00 0.00 61 1018.0
20260830161954 89 182 2.0 3.0 0.00 0.00 0.00 60 1018.0
20260830161454 89 144 2.0 2.0 0.00 0.00 0.00 61 1018.0
20260830160955 89 152 3.0 5.0 0.00 0.00 0.00 60 1018.0
20260830160455 88 117 2.0 4.0 0.00 0.00 0.00 61 1018.0
20260830155954 88 173 2.0 4.0 0.00 0.00 0.00 62 1018.0
20260830155455 87 186 3.0 6.0 0.00 0.00 0.00 64 1018.0
20260830154954 87 197 2.0 3.0 0.00 0.00 0.00 64 1018.0
20260830154454 87 172 2.0 4.0 0.00 0.00 0.00 63 1018.0
20260830153954 86 172 1.0 2.0 0.00 0.00 0.00 66 1018.0
20260830153454 86 176 4.0 6.0 0.00 0.00 0.00 66 1018.0
20260830152954 86 188 2.0 3.0 0.00 0.00 0.00 65 1018.0
20260830152454 85 182 3.0 4.0 0.00 0.00 0.00 67 1018.0
20260830151955 85 182 2.0 5.0 0.00 0.00 0.00 67 1018.0
20260830151454 85 175 2.0 3.0 0.00 0.00 0.00 68 1017.0
20260830150958 84 178 2.0 4.0 0.00 0.00 0.00 69 1018.0
20260830150454 84 220 1.0 4.0 0.00 0.00 0.00 71 1018.0
20260830145954 83 166 2.0 4.0 0.00 0.00 0.00 71 1018.0
20260830145507 83 157 2.0 4.0 0.00 0.00 0.00 73 1017.0
20260830144954 83 177 2.0 4.0 0.00 0.00 0.00 73 1018.0
20260830144455 83 174 3.0 8.0 0.00 0.00 0.00 73 1018.0
20260830143954 82 173 3.0 6.0 0.00 0.00 0.00 74 1018.0
20260830143454 82 178 3.0 5.0 0.00 0.00 0.00 74 1018.0
20260830142955 82 169 3.0 6.0 0.00 0.00 0.00 74 1018.0
20260830142454 82 171 2.0 5.0 0.00 0.00 0.00 75 1018.0
20260830141954 81 174 3.0 4.0 0.00 0.00 0.00 76 1018.0
20260830141454 81 217 2.0 5.0 0.00 0.00 0.00 77 1018.0
20260830140955 81 179 3.0 6.0 0.00 0.00 0.00 77 1018.0
20260830140454 81 175 2.0 7.0 0.00 0.00 0.00 78 1018.0
20260830135954 80 177 2.0 4.0 0.00 0.00 0.00 79 1018.0
20260830135454 80 212 2.0 5.0 0.00 0.00 0.00 80 1018.0
20260830134954 80 176 2.0 4.0 0.00 0.00 0.00 80 1018.0
20260830134454 79 174 4.0 9.0 0.00 0.00 0.00 81 1018.0
20260830133954 79 171 3.0 5.0 0.00 0.00 0.00 82 1017.0
20260830133454 79 169 2.0 5.0 0.00 0.00 0.00 83 1017.0
20260830132957 79 169 4.0 6.0 0.00 0.00 0.00 83 1017.0
20260830132456 78 171 2.0 6.0 0.00 0.00 0.00 84 1017.0
20260830131954 78 166 4.0 7.0 0.00 0.00 0.00 84 1017.0
20260830131454 78 169 3.0 5.0 0.00 0.00 0.00 84 1017.0
20260830130954 78 173 3.0 6.0 0.00 0.00 0.00 85 1017.0
20260830130455 78 178 3.0 6.0 0.00 0.00 0.00 85 1017.0
20260830125955 78 190 2.0 4.0 0.00 0.00 0.00 85 1017.0
20260830125455 77 173 2.0 5.0 0.00 0.00 0.00 86 1017.0
20260830124954 77 174 2.0 3.0 0.00 0.00 0.00 86 1017.0
20260830124454 77 226 0.0 2.0 0.00 0.00 0.00 86 1017.0
20260830123954 77 191 1.0 2.0 0.00 0.00 0.00 86 1017.0
20260830123455 77 191 2.0 4.0 0.00 0.00 0.00 87 1017.0
20260830122954 77 176 3.0 5.0 0.00 0.00 0.00 87 1017.0
20260830122454 76 184 2.0 5.0 0.00 0.00 0.00 88 1017.0
20260830121954 76 178 1.0 3.0 0.00 0.00 0.00 88 1017.0
20260830121454 76 153 1.0 3.0 0.00 0.00 0.00 87 1017.0
20260830120954 76 165 1.0 3.0 0.00 0.00 0.00 88 1017.0
20260830120454 76 182 1.0 2.0 0.00 0.00 0.00 87 1017.0
20260830115954 76 360 0.0 0.0 0.00 0.00 0.00 87 1017.0
20260830115454 76 360 0.0 0.0 0.00 0.00 0.00 86 1017.0
20260830114954 76 360 0.0 0.0 0.00 0.00 0.00 86 1017.0
20260830114454 76 147 0.0 2.0 0.00 0.00 0.00 86 1017.0
20260830113954 76 172 1.0 2.0 0.00 0.00 0.00 85 1017.0
20260830113454 76 99 0.0 0.0 0.00 0.00 0.00 84 1017.0
20260830112956 76 360 0.0 0.0 0.00 0.00 0.00 84 1017.0
20260830112454 76 90 0.0 2.0 0.00 0.00 0.00 84 1017.0
20260830111954 77 78 1.0 2.0 0.00 0.00 0.00 83 1016.0
20260830111454 77 69 0.0 2.0 0.00 0.00 0.00 83 1017.0
20260830110955 77 135 0.0 1.0 0.00 0.00 0.00 83 1016.0
20260830110454 77 74 0.0 1.0 0.00 0.00 0.00 82 1016.0
20260830105954 77 170 1.0 1.0 0.00 0.00 0.00 82 1016.0
20260830105454 78 172 0.0 2.0 0.00 0.00 0.00 81 1016.0
20260830104954 78 127 1.0 2.0 0.00 0.00 0.00 80 1016.0
20260830104455 78 117 0.0 1.0 0.00 0.00 0.00 81 1016.0
20260830103954 78 172 2.0 7.0 0.00 0.00 0.00 81 1016.0
20260830103454 78 191 2.0 4.0 0.00 0.00 0.00 80 1016.0
20260830102954 78 157 2.0 4.0 0.00 0.00 0.00 80 1016.0
20260830102454 78 179 2.0 5.0 0.00 0.00 0.00 79 1016.0
20260830101954 78 186 1.0 2.0 0.00 0.00 0.00 78 1016.0
20260830101456 78 178 2.0 4.0 0.00 0.00 0.00 78 1016.0
20260830100954 78 175 3.0 5.0 0.00 0.00 0.00 78 1016.0
20260830100454 78 177 0.0 2.0 0.00 0.00 0.00 77 1016.0
20260830095954 78 168 2.0 3.0 0.00 0.00 0.00 77 1016.0
20260830095455 78 169 2.0 4.0 0.00 0.00 0.00 77 1016.0
20260830094954 78 172 2.0 3.0 0.00 0.00 0.00 77 1016.0
20260830094454 79 172 1.0 2.0 0.00 0.00 0.00 77 1016.0
20260830093954 79 178 1.0 2.0 0.00 0.00 0.00 77 1016.0
20260830093454 79 180 2.0 3.0 0.00 0.00 0.00 77 1016.0
20260830092954 79 191 1.0 2.0 0.00 0.00 0.00 76 1016.0
20260830092454 79 191 0.0 2.0 0.00 0.00 0.00 76 1016.0
20260830091958 79 179 1.0 3.0 0.00 0.00 0.00 76 1016.0
20260830091455 79 172 0.0 2.0 0.00 0.00 0.00 75 1016.0
20260830090954 80 169 2.0 3.0 0.00 0.00 0.00 75 1016.0
20260830090454 80 168 3.0 5.0 0.00 0.00 0.00 74 1016.0
20260830085955 80 176 2.0 4.0 0.00 0.00 0.00 74 1016.0
20260830085454 80 176 2.0 3.0 0.00 0.00 0.00 74 1016.0
20260830084954 80 168 2.0 3.0 0.00 0.00 0.00 74 1016.0
20260830084454 80 169 2.0 3.0 0.00 0.00 0.00 73 1016.0
20260830083954 80 164 2.0 3.0 0.00 0.00 0.00 74 1016.0
20260830083503 80 158 2.0 4.0 0.00 0.00 0.00 73 1016.0
20260830082954 80 188 2.0 2.0 0.00 0.00 0.00 73 1016.0
20260830082454 80 174 1.0 2.0 0.00 0.00 0.00 73 1016.0
20260830081954 80 174 2.0 3.0 0.00 0.00 0.00 73 1016.0
20260830081454 81 155 2.0 4.0 0.00 0.00 0.00 73 1016.0
20260830080956 81 172 1.0 3.0 0.00 0.00 0.00 72 1016.0
20260830080455 81 174 1.0 3.0 0.00 0.00 0.00 72 1016.0
20260830075956 81 171 2.0 5.0 0.00 0.00 0.00 72 1016.0
20260830075454 81 177 2.0 3.0 0.00 0.00 0.00 72 1016.0
20260830074954 81 170 2.0 4.0 0.00 0.00 0.00 71 1017.0
20260830074454 81 165 3.0 4.0 0.00 0.00 0.00 71 1016.0
20260830073956 81 179 2.0 4.0 0.00 0.00 0.00 71 1016.0
20260830073454 81 180 2.0 3.0 0.00 0.00 0.00 71 1016.0
20260830072954 82 168 1.0 3.0 0.00 0.00 0.00 70 1017.0
20260830072454 82 141 2.0 4.0 0.00 0.00 0.00 70 1017.0
20260830071955 82 166 3.0 6.0 0.00 0.00 0.00 70 1017.0
20260830071454 82 155 1.0 3.0 0.00 0.00 0.00 70 1017.0
20260830070954 82 185 2.0 3.0 0.00 0.00 0.00 71 1017.0
20260830070454 82 114 1.0 2.0 0.00 0.00 0.00 71 1017.0
20260830065956 82 154 0.0 0.0 0.00 0.00 0.00 71 1017.0
20260830065457 82 176 2.0 3.0 0.00 0.00 0.00 70 1017.0
20260830064954 82 119 1.0 3.0 0.00 0.00 0.00 70 1017.0
20260830064454 83 150 2.0 4.0 0.00 0.00 0.00 70 1017.0
20260830063954 83 146 1.0 2.0 0.00 0.00 0.00 70 1017.0
20260830063454 83 108 1.0 2.0 0.00 0.00 0.00 69 1017.0
20260830062954 83 105 1.0 3.0 0.00 0.00 0.00 69 1017.0
20260830062455 83 146 2.0 3.0 0.00 0.00 0.00 69 1017.0
20260830061955 83 187 2.0 4.0 0.00 0.00 0.00 69 1017.0
20260830061455 83 171 2.0 4.0 0.00 0.00 0.00 68 1017.0
20260830060955 83 175 1.0 2.0 0.00 0.00 0.00 68 1016.0
20260830060454 83 196 2.0 3.0 0.00 0.00 0.00 69 1016.0
20260830055956 84 182 2.0 3.0 0.00 0.00 0.00 68 1016.0
20260830055455 83 182 2.0 4.0 0.00 0.00 0.00 69 1016.0
20260830054954 84 174 2.0 5.0 0.00 0.00 0.00 69 1016.0
20260830054454 84 181 1.0 3.0 0.00 0.00 0.00 70 1016.0
20260830053954 84 175 2.0 4.0 0.00 0.00 0.00 69 1016.0